Time,TemperatureF,DewpointF,PressureIn,WindDirection,WindDirectionDegrees,WindSpeedMPH,WindSpeedGustMPH,Humidity,HourlyPrecipIn,Conditions,Clouds,dailyrainin,SoftwareType,DateUTC
2012-09-30 00:01:00,46.6,42.6,30.25,SE,135,0.0,0.0,86,0.00,,,0.00,WUHU21623XXSP,2012-09-30 07:01:00,
2012-09-30 00:06:00,46.2,42.3,30.26,SE,135,0.0,0.0,86,0.00,,,0.00,WUHU21623XXSP,2012-09-30 07:06:00,
2012-09-30 00:11:00,46.2,42.3,30.26,SE,135,0.0,0.0,86,0.00,,,0.00,WUHU21623XXSP,2012-09-30 07:11:00,
2012-09-30 00:16:00,46.0,42.1,30.26,SE,135,0.0,0.0,86,0.00,,,0.00,WUHU21623XXSP,2012-09-30 07:16:00,
2012-09-30 00:21:00,45.9,41.9,30.26,SE,135,0.0,0.0,86,0.00,,,0.00,WUHU21623XXSP,2012-09-30 07:21:00,
2012-09-30 00:26:00,45.7,41.8,30.26,SE,135,0.0,0.0,86,0.00,,,0.00,WUHU21623XXSP,2012-09-30 07:26:00,
2012-09-30 00:31:00,45.7,41.8,30.26,SE,135,0.0,0.0,86,0.00,,,0.00,WUHU21623XXSP,2012-09-30 07:31:00,
2012-09-30 00:36:00,45.5,41.6,30.26,SE,135,0.0,0.0,86,0.00,,,0.00,WUHU21623XXSP,2012-09-30 07:36:00,
2012-09-30 00:41:00,45.3,41.6,30.27,SE,135,0.0,0.0,86,0.00,,,0.00,WUHU21623XXSP,2012-09-30 07:41:00,
2012-09-30 00:46:00,45.1,41.7,30.26,SE,135,0.0,0.0,87,0.00,,,0.00,WUHU21623XXSP,2012-09-30 07:46:00,
2012-09-30 00:51:00,45.1,41.5,30.27,SE,135,0.0,0.0,87,0.00,,,0.00,WUHU21623XXSP,2012-09-30 07:51:00,
2012-09-30 00:56:00,45.1,41.5,30.27,SE,135,0.0,0.0,87,0.00,,,0.00,WUHU21623XXSP,2012-09-30 07:56:00,
2012-09-30 01:01:00,45.1,41.5,30.27,SE,135,0.0,0.0,87,0.00,,,0.00,WUHU21623XXSP,2012-09-30 08:01:00,
2012-09-30 01:06:00,45.0,41.3,30.27,SE,135,0.0,0.0,87,0.00,,,0.00,WUHU21623XXSP,2012-09-30 08:06:00,
2012-09-30 01:11:00,44.8,41.2,30.27,SE,135,0.0,0.0,87,0.00,,,0.00,WUHU21623XXSP,2012-09-30 08:11:00,
2012-09-30 01:16:00,44.8,41.5,30.27,SE,135,0.0,0.0,88,0.00,,,0.00,WUHU21623XXSP,2012-09-30 08:16:00,
2012-09-30 01:21:00,44.8,41.5,30.27,SE,135,0.0,0.0,88,0.00,,,0.00,WUHU21623XXSP,2012-09-30 08:21:00,
2012-09-30 01:26:00,44.6,41.3,30.27,SE,135,0.0,0.0,88,0.00,,,0.00,WUHU21623XXSP,2012-09-30 08:26:00,
2012-09-30 01:31:00,44.6,41.3,30.27,SE,135,0.0,0.0,88,0.00,,,0.00,WUHU21623XXSP,2012-09-30 08:31:00,
2012-09-30 01:36:00,44.6,41.3,30.27,SE,135,0.0,0.0,88,0.00,,,0.00,WUHU21623XXSP,2012-09-30 08:36:00,
2012-09-30 01:41:00,44.4,41.1,30.27,SE,135,0.0,0.0,88,0.00,,,0.00,WUHU21623XXSP,2012-09-30 08:41:00,
2012-09-30 01:46:00,44.4,41.1,30.28,SE,135,0.0,0.0,88,0.00,,,0.00,WUHU21623XXSP,2012-09-30 08:46:00,
2012-09-30 01:51:00,44.2,40.9,30.27,SE,135,0.0,0.0,88,0.00,,,0.00,WUHU21623XXSP,2012-09-30 08:51:00,
2012-09-30 01:56:00,44.2,40.9,30.27,SE,135,0.0,0.0,88,0.00,,,0.00,WUHU21623XXSP,2012-09-30 08:56:00,
2012-09-30 02:01:00,44.1,40.7,30.27,SE,135,0.0,0.0,88,0.00,,,0.00,WUHU21623XXSP,2012-09-30 09:01:00,
2012-09-30 02:06:00,44.1,40.7,30.27,SE,135,0.0,0.0,88,0.00,,,0.00,WUHU21623XXSP,2012-09-30 09:06:00,
2012-09-30 02:11:00,44.1,40.7,30.27,SE,135,0.0,0.0,88,0.00,,,0.00,WUHU21623XXSP,2012-09-30 09:11:00,
2012-09-30 02:16:00,44.1,40.7,30.27,SE,135,0.0,0.0,88,0.00,,,0.00,WUHU21623XXSP,2012-09-30 09:16:00,
2012-09-30 02:21:00,43.9,40.7,30.28,SE,135,0.0,0.0,88,0.00,,,0.00,WUHU21623XXSP,2012-09-30 09:21:00,
2012-09-30 02:26:00,43.9,40.6,30.28,SE,135,0.0,0.0,88,0.00,,,0.00,WUHU21623XXSP,2012-09-30 09:26:00,
2012-09-30 02:31:00,43.7,40.6,30.27,SE,135,0.0,0.0,88,0.00,,,0.00,WUHU21623XXSP,2012-09-30 09:31:00,
2012-09-30 02:36:00,43.7,40.4,30.27,SE,135,0.0,0.0,88,0.00,,,0.00,WUHU21623XXSP,2012-09-30 09:36:00,
2012-09-30 02:41:00,43.5,40.2,30.27,SE,135,0.0,0.0,88,0.00,,,0.00,WUHU21623XXSP,2012-09-30 09:41:00,
2012-09-30 02:46:00,43.5,40.2,30.27,SE,135,0.0,0.0,88,0.00,,,0.00,WUHU21623XXSP,2012-09-30 09:46:00,
2012-09-30 02:51:00,43.5,40.2,30.27,SE,135,0.0,0.0,88,0.00,,,0.00,WUHU21623XXSP,2012-09-30 09:51:00,
2012-09-30 02:56:00,43.3,40.2,30.28,SE,135,0.0,0.0,88,0.00,,,0.00,WUHU21623XXSP,2012-09-30 09:56:00,
2012-09-30 03:01:00,43.3,40.0,30.28,SE,135,0.0,0.0,88,0.00,,,0.00,WUHU21623XXSP,2012-09-30 10:01:00,
2012-09-30 03:06:00,43.3,40.0,30.28,SE,135,0.0,0.0,88,0.00,,,0.00,WUHU21623XXSP,2012-09-30 10:06:00,
2012-09-30 03:11:00,43.2,39.8,30.28,SE,135,0.0,0.0,88,0.00,,,0.00,WUHU21623XXSP,2012-09-30 10:11:00,
2012-09-30 03:16:00,43.2,39.8,30.28,SE,135,0.0,0.0,88,0.00,,,0.00,WUHU21623XXSP,2012-09-30 10:16:00,
2012-09-30 03:21:00,43.0,39.7,30.28,SE,135,0.0,0.0,88,0.00,,,0.00,WUHU21623XXSP,2012-09-30 10:21:00,
2012-09-30 03:26:00,43.0,39.7,30.28,SE,135,0.0,0.0,88,0.00,,,0.00,WUHU21623XXSP,2012-09-30 10:26:00,
2012-09-30 03:31:00,43.0,40.0,30.28,SE,135,0.0,0.0,89,0.00,,,0.00,WUHU21623XXSP,2012-09-30 10:31:00,
2012-09-30 03:36:00,43.0,40.0,30.28,SE,135,0.0,0.0,89,0.00,,,0.00,WUHU21623XXSP,2012-09-30 10:36:00,
2012-09-30 03:41:00,43.0,40.0,30.28,SE,135,0.0,0.0,89,0.00,,,0.00,WUHU21623XXSP,2012-09-30 10:41:00,
2012-09-30 03:46:00,42.8,39.8,30.28,SE,135,0.0,0.0,89,0.00,,,0.00,WUHU21623XXSP,2012-09-30 10:46:00,
2012-09-30 03:51:00,42.8,39.8,30.28,SE,135,0.0,0.0,89,0.00,,,0.00,WUHU21623XXSP,2012-09-30 10:51:00,
2012-09-30 03:56:00,42.8,39.8,30.28,SE,135,0.0,0.0,89,0.00,,,0.00,WUHU21623XXSP,2012-09-30 10:56:00,
2012-09-30 04:01:00,42.8,39.8,30.28,SE,135,0.0,0.0,89,0.00,,,0.00,WUHU21623XXSP,2012-09-30 11:01:00,
2012-09-30 04:06:00,42.8,39.8,30.28,SE,135,0.0,0.0,89,0.00,,,0.00,WUHU21623XXSP,2012-09-30 11:06:00,
2012-09-30 04:11:00,43.0,39.8,30.28,SE,135,0.0,0.0,89,0.00,,,0.00,WUHU21623XXSP,2012-09-30 11:11:00,
2012-09-30 04:16:00,42.8,39.8,30.28,SE,135,0.0,0.0,89,0.00,,,0.00,WUHU21623XXSP,2012-09-30 11:16:00,
2012-09-30 04:21:00,42.8,39.8,30.28,SE,135,0.0,0.0,89,0.00,,,0.00,WUHU21623XXSP,2012-09-30 11:21:00,
2012-09-30 04:26:00,42.6,39.6,30.28,SE,135,0.0,0.0,89,0.00,,,0.00,WUHU21623XXSP,2012-09-30 11:26:00,
2012-09-30 04:31:00,42.6,39.6,30.29,SE,135,0.0,0.0,89,0.00,,,0.00,WUHU21623XXSP,2012-09-30 11:31:00,
2012-09-30 04:36:00,42.6,39.6,30.29,SE,135,0.0,0.0,89,0.00,,,0.00,WUHU21623XXSP,2012-09-30 11:36:00,
2012-09-30 04:41:00,42.6,39.6,30.28,SE,135,0.0,0.0,89,0.00,,,0.00,WUHU21623XXSP,2012-09-30 11:41:00,
2012-09-30 04:46:00,42.6,39.6,30.29,SE,135,0.0,0.0,89,0.00,,,0.00,WUHU21623XXSP,2012-09-30 11:46:00,
2012-09-30 04:51:00,42.6,39.6,30.29,SE,135,0.0,0.0,89,0.00,,,0.00,WUHU21623XXSP,2012-09-30 11:51:00,
2012-09-30 04:56:00,42.4,39.6,30.29,SE,135,0.0,0.0,89,0.00,,,0.00,WUHU21623XXSP,2012-09-30 11:56:00,
2012-09-30 05:01:00,42.4,39.4,30.29,SE,135,0.0,0.0,89,0.00,,,0.00,WUHU21623XXSP,2012-09-30 12:01:00,
2012-09-30 05:06:00,42.1,39.1,30.29,SE,135,0.0,0.0,89,0.00,,,0.00,WUHU21623XXSP,2012-09-30 12:06:00,
2012-09-30 05:11:00,42.1,39.1,30.29,SE,135,0.0,0.0,89,0.00,,,0.00,WUHU21623XXSP,2012-09-30 12:11:00,
2012-09-30 05:16:00,41.9,38.9,30.29,SE,135,0.0,0.0,89,0.00,,,0.00,WUHU21623XXSP,2012-09-30 12:16:00,
2012-09-30 05:21:00,41.9,38.9,30.29,SE,135,0.0,0.0,89,0.00,,,0.00,WUHU21623XXSP,2012-09-30 12:21:00,
2012-09-30 05:26:00,41.9,38.9,30.29,SE,135,0.0,0.0,89,0.00,,,0.00,WUHU21623XXSP,2012-09-30 12:26:00,
2012-09-30 05:31:00,41.7,38.7,30.29,SE,135,0.0,0.0,89,0.00,,,0.00,WUHU21623XXSP,2012-09-30 12:31:00,
2012-09-30 05:36:00,41.7,38.7,30.29,SE,135,0.0,0.0,89,0.00,,,0.00,WUHU21623XXSP,2012-09-30 12:36:00,
2012-09-30 05:41:00,41.7,38.7,30.29,SE,135,0.0,0.0,89,0.00,,,0.00,WUHU21623XXSP,2012-09-30 12:41:00,
2012-09-30 05:46:00,41.5,38.5,30.29,SE,135,0.0,0.0,89,0.00,,,0.00,WUHU21623XXSP,2012-09-30 12:46:00,
2012-09-30 05:51:00,41.5,38.5,30.29,SE,135,0.0,0.0,89,0.00,,,0.00,WUHU21623XXSP,2012-09-30 12:51:00,
2012-09-30 05:56:00,41.2,38.4,30.29,SE,135,0.0,0.0,88,0.00,,,0.00,WUHU21623XXSP,2012-09-30 12:56:00,
2012-09-30 06:01:00,41.2,37.9,30.29,SE,135,0.0,0.0,88,0.00,,,0.00,WUHU21623XXSP,2012-09-30 13:01:00,
2012-09-30 06:06:00,40.8,37.5,30.30,SE,135,0.0,0.0,88,0.00,,,0.00,WUHU21623XXSP,2012-09-30 13:06:00,
2012-09-30 06:11:00,40.8,37.5,30.30,SE,135,0.0,0.0,88,0.00,,,0.00,WUHU21623XXSP,2012-09-30 13:11:00,
2012-09-30 06:16:00,40.8,37.8,30.30,SE,135,0.0,0.0,89,0.00,,,0.00,WUHU21623XXSP,2012-09-30 13:16:00,
2012-09-30 06:21:00,40.8,37.8,30.31,SE,135,0.0,0.0,89,0.00,,,0.00,WUHU21623XXSP,2012-09-30 13:21:00,
2012-09-30 06:26:00,40.8,37.8,30.31,SE,135,0.0,0.0,89,0.00,,,0.00,WUHU21623XXSP,2012-09-30 13:26:00,
2012-09-30 06:31:00,40.8,37.8,30.31,SE,135,0.0,0.0,89,0.00,,,0.00,WUHU21623XXSP,2012-09-30 13:31:00,
2012-09-30 06:36:00,40.8,37.8,30.31,SE,135,0.0,0.0,89,0.00,,,0.00,WUHU21623XXSP,2012-09-30 13:36:00,
2012-09-30 06:41:00,40.8,37.8,30.31,SE,135,0.0,0.0,89,0.00,,,0.00,WUHU21623XXSP,2012-09-30 13:41:00,
2012-09-30 06:46:00,40.8,37.8,30.31,SE,135,0.0,0.0,89,0.00,,,0.00,WUHU21623XXSP,2012-09-30 13:46:00,
2012-09-30 06:51:00,40.8,38.1,30.31,SE,135,0.0,0.0,90,0.00,,,0.00,WUHU21623XXSP,2012-09-30 13:51:00,
2012-09-30 06:56:00,40.8,38.1,30.31,SE,135,0.0,0.0,90,0.00,,,0.00,WUHU21623XXSP,2012-09-30 13:56:00,
2012-09-30 07:01:00,40.8,38.1,30.32,SE,135,0.0,0.0,90,0.00,,,0.00,WUHU21623XXSP,2012-09-30 14:01:00,
2012-09-30 07:06:00,40.8,38.1,30.32,SE,135,0.0,0.0,90,0.00,,,0.00,WUHU21623XXSP,2012-09-30 14:06:00,
2012-09-30 07:11:00,40.8,38.1,30.32,SE,135,0.0,0.0,90,0.00,,,0.00,WUHU21623XXSP,2012-09-30 14:11:00,
2012-09-30 07:16:00,40.8,38.1,30.32,SE,135,0.0,0.0,90,0.00,,,0.00,WUHU21623XXSP,2012-09-30 14:16:00,
2012-09-30 07:21:00,40.8,38.1,30.33,SE,135,0.0,0.0,90,0.00,,,0.00,WUHU21623XXSP,2012-09-30 14:21:00,
2012-09-30 07:26:00,40.8,38.1,30.33,SE,135,0.0,0.0,90,0.00,,,0.00,WUHU21623XXSP,2012-09-30 14:26:00,
2012-09-30 07:31:00,40.8,38.1,30.33,SE,135,0.0,0.0,90,0.00,,,0.00,WUHU21623XXSP,2012-09-30 14:31:00,
2012-09-30 07:36:00,40.8,38.1,30.33,SE,135,0.0,0.0,90,0.00,,,0.00,WUHU21623XXSP,2012-09-30 14:36:00,
2012-09-30 07:41:00,41.0,38.3,30.33,SE,135,0.0,0.0,90,0.00,,,0.00,WUHU21623XXSP,2012-09-30 14:41:00,
2012-09-30 07:46:00,41.0,38.3,30.33,SE,135,0.0,0.0,90,0.00,,,0.00,WUHU21623XXSP,2012-09-30 14:46:00,
2012-09-30 07:51:00,41.2,38.5,30.33,SE,135,0.0,0.0,90,0.00,,,0.00,WUHU21623XXSP,2012-09-30 14:51:00,
2012-09-30 07:56:00,41.2,38.5,30.33,SE,135,0.0,0.0,90,0.00,,,0.00,WUHU21623XXSP,2012-09-30 14:56:00,
2012-09-30 08:01:00,41.2,38.5,30.33,SE,135,0.0,0.0,90,0.00,,,0.00,WUHU21623XXSP,2012-09-30 15:01:00,
2012-09-30 08:06:00,41.4,38.7,30.33,SE,135,0.0,0.0,90,0.00,,,0.00,WUHU21623XXSP,2012-09-30 15:06:00,
2012-09-30 08:11:00,41.4,38.7,30.33,SE,135,0.0,0.0,90,0.00,,,0.00,WUHU21623XXSP,2012-09-30 15:11:00,
2012-09-30 08:16:00,41.4,38.7,30.34,SE,135,0.0,0.0,90,0.00,,,0.00,WUHU21623XXSP,2012-09-30 15:16:00,
2012-09-30 08:21:00,41.4,38.7,30.34,SE,135,0.0,0.0,90,0.00,,,0.00,WUHU21623XXSP,2012-09-30 15:21:00,
2012-09-30 08:26:00,41.4,38.7,30.34,SE,135,0.0,0.0,90,0.00,,,0.00,WUHU21623XXSP,2012-09-30 15:26:00,
2012-09-30 08:31:00,41.5,38.8,30.33,SE,135,0.0,0.0,90,0.00,,,0.00,WUHU21623XXSP,2012-09-30 15:31:00,
2012-09-30 08:36:00,41.5,38.8,30.34,SE,135,0.0,0.0,90,0.00,,,0.00,WUHU21623XXSP,2012-09-30 15:36:00,
2012-09-30 08:41:00,41.5,38.8,30.34,SE,135,0.0,0.0,90,0.00,,,0.00,WUHU21623XXSP,2012-09-30 15:41:00,
2012-09-30 08:46:00,41.9,39.0,30.34,SE,135,0.0,0.0,90,0.00,,,0.00,WUHU21623XXSP,2012-09-30 15:46:00,
2012-09-30 08:51:00,41.9,39.2,30.34,SE,135,0.0,0.0,90,0.00,,,0.00,WUHU21623XXSP,2012-09-30 15:51:00,
2012-09-30 08:56:00,42.1,39.6,30.34,SE,135,0.0,0.0,91,0.00,,,0.00,WUHU21623XXSP,2012-09-30 15:56:00,
2012-09-30 09:01:00,42.4,40.0,30.35,SE,135,0.0,0.0,91,0.00,,,0.00,WUHU21623XXSP,2012-09-30 16:01:00,
2012-09-30 09:06:00,42.4,40.0,30.35,SE,135,0.0,0.0,91,0.00,,,0.00,WUHU21623XXSP,2012-09-30 16:06:00,
2012-09-30 09:11:00,42.6,40.2,30.35,SE,135,0.0,0.0,91,0.00,,,0.00,WUHU21623XXSP,2012-09-30 16:11:00,
2012-09-30 09:16:00,43.0,40.5,30.35,SE,135,0.0,0.0,91,0.00,,,0.00,WUHU21623XXSP,2012-09-30 16:16:00,
2012-09-30 09:21:00,43.3,40.9,30.35,SE,135,0.0,0.0,91,0.00,,,0.00,WUHU21623XXSP,2012-09-30 16:21:00,
2012-09-30 09:26:00,43.5,41.4,30.35,SE,135,0.0,0.0,92,0.00,,,0.00,WUHU21623XXSP,2012-09-30 16:26:00,
2012-09-30 09:31:00,44.1,41.9,30.35,SE,135,0.0,0.0,92,0.00,,,0.00,WUHU21623XXSP,2012-09-30 16:31:00,
2012-09-30 09:36:00,44.4,42.3,30.35,SE,135,0.0,0.0,92,0.00,,,0.00,WUHU21623XXSP,2012-09-30 16:36:00,
2012-09-30 09:41:00,44.6,42.4,30.35,SE,135,0.0,0.0,92,0.00,,,0.00,WUHU21623XXSP,2012-09-30 16:41:00,
2012-09-30 09:46:00,45.1,42.6,30.35,SE,135,0.0,0.0,92,0.00,,,0.00,WUHU21623XXSP,2012-09-30 16:46:00,
2012-09-30 09:51:00,45.1,43.0,30.35,SE,135,0.0,0.0,92,0.00,,,0.00,WUHU21623XXSP,2012-09-30 16:51:00,
2012-09-30 09:56:00,45.7,43.5,30.35,SE,135,0.0,0.0,92,0.00,,,0.00,WUHU21623XXSP,2012-09-30 16:56:00,
2012-09-30 10:01:00,46.2,44.1,30.36,SE,135,0.0,0.0,92,0.00,,,0.00,WUHU21623XXSP,2012-09-30 17:01:00,
2012-09-30 10:06:00,46.6,44.7,30.36,SE,135,0.0,0.0,93,0.00,,,0.00,WUHU21623XXSP,2012-09-30 17:06:00,
2012-09-30 10:11:00,46.9,45.0,30.36,SE,135,0.0,0.0,93,0.00,,,0.00,WUHU21623XXSP,2012-09-30 17:11:00,
2012-09-30 10:16:00,47.3,45.1,30.36,WSW,247,0.0,0.0,92,0.00,,,0.00,WUHU21623XXSP,2012-09-30 17:16:00,
2012-09-30 10:21:00,48.0,45.9,30.36,WSW,247,0.0,0.0,92,0.00,,,0.00,WUHU21623XXSP,2012-09-30 17:21:00,
2012-09-30 10:26:00,48.4,46.2,30.36,South,180,0.0,0.0,92,0.00,,,0.00,WUHU21623XXSP,2012-09-30 17:26:00,
2012-09-30 10:31:00,49.1,46.6,30.36,SSW,202,0.0,0.0,91,0.00,,,0.00,WUHU21623XXSP,2012-09-30 17:31:00,
2012-09-30 10:36:00,49.6,46.8,30.35,SW,225,0.0,0.0,90,0.00,,,0.00,WUHU21623XXSP,2012-09-30 17:36:00,
2012-09-30 10:41:00,50.4,47.5,30.35,SW,225,0.0,0.0,90,0.00,,,0.00,WUHU21623XXSP,2012-09-30 17:41:00,
2012-09-30 10:46:00,51.3,48.4,30.36,NW,315,0.0,0.0,90,0.00,,,0.00,WUHU21623XXSP,2012-09-30 17:46:00,
2012-09-30 10:51:00,51.8,48.6,30.36,NW,315,0.0,0.0,89,0.00,,,0.00,WUHU21623XXSP,2012-09-30 17:51:00,
2012-09-30 10:56:00,52.3,49.0,30.36,SW,225,0.0,0.0,89,0.00,,,0.00,WUHU21623XXSP,2012-09-30 17:56:00,
2012-09-30 11:01:00,52.9,48.8,30.36,ENE,67,0.0,0.0,86,0.00,,,0.00,WUHU21623XXSP,2012-09-30 18:01:00,
2012-09-30 11:06:00,53.4,49.3,30.36,SE,135,0.0,0.0,86,0.00,,,0.00,WUHU21623XXSP,2012-09-30 18:06:00,
2012-09-30 11:11:00,53.8,49.7,30.36,SSW,202,0.0,0.0,86,0.00,,,0.00,WUHU21623XXSP,2012-09-30 18:11:00,
2012-09-30 11:16:00,54.3,49.5,30.36,SE,135,0.0,0.0,84,0.00,,,0.00,WUHU21623XXSP,2012-09-30 18:16:00,
2012-09-30 11:21:00,54.7,49.3,30.35,South,180,0.0,0.0,82,0.00,,,0.00,WUHU21623XXSP,2012-09-30 18:21:00,
2012-09-30 11:26:00,55.2,49.1,30.35,ENE,67,0.0,0.0,80,0.00,,,0.00,WUHU21623XXSP,2012-09-30 18:26:00,
2012-09-30 11:31:00,55.8,49.6,30.35,SSW,202,0.0,0.0,80,0.00,,,0.00,WUHU21623XXSP,2012-09-30 18:31:00,
2012-09-30 11:36:00,56.1,50.0,30.35,NNE,22,0.0,0.0,80,0.00,,,0.00,WUHU21623XXSP,2012-09-30 18:36:00,
2012-09-30 11:41:00,56.3,49.5,30.35,SSW,202,0.0,0.0,78,0.00,,,0.00,WUHU21623XXSP,2012-09-30 18:41:00,
2012-09-30 11:46:00,56.8,49.3,30.35,WSW,247,0.0,0.0,77,0.00,,,0.00,WUHU21623XXSP,2012-09-30 18:46:00,
2012-09-30 11:51:00,57.0,49.5,30.34,West,270,0.0,0.0,76,0.00,,,0.00,WUHU21623XXSP,2012-09-30 18:51:00,
2012-09-30 11:56:00,57.4,49.8,30.35,NNE,22,0.0,0.0,76,0.00,,,0.00,WUHU21623XXSP,2012-09-30 18:56:00,
2012-09-30 12:01:00,57.9,50.4,30.34,SSE,157,0.0,0.0,76,0.00,,,0.00,WUHU21623XXSP,2012-09-30 19:01:00,
2012-09-30 12:06:00,58.1,50.2,30.34,NNE,22,0.0,0.0,75,0.00,,,0.00,WUHU21623XXSP,2012-09-30 19:06:00,
2012-09-30 12:11:00,58.5,50.9,30.34,ESE,112,0.0,0.0,76,0.00,,,0.00,WUHU21623XXSP,2012-09-30 19:11:00,
2012-09-30 12:16:00,58.8,50.9,30.35,NW,315,0.0,0.0,75,0.00,,,0.00,WUHU21623XXSP,2012-09-30 19:16:00,
2012-09-30 12:21:00,59.0,51.1,30.35,SE,135,0.0,0.0,75,0.00,,,0.00,WUHU21623XXSP,2012-09-30 19:21:00,
2012-09-30 12:26:00,59.4,51.1,30.35,North,0,0.0,0.0,74,0.00,,,0.00,WUHU21623XXSP,2012-09-30 19:26:00,
2012-09-30 12:31:00,59.9,51.3,30.34,SSE,157,0.0,0.0,73,0.00,,,0.00,WUHU21623XXSP,2012-09-30 19:31:00,
2012-09-30 12:36:00,60.1,51.8,30.34,North,0,0.0,0.0,74,0.00,,,0.00,WUHU21623XXSP,2012-09-30 19:36:00,
2012-09-30 12:41:00,60.6,52.0,30.34,West,270,0.0,0.0,73,0.00,,,0.00,WUHU21623XXSP,2012-09-30 19:41:00,
2012-09-30 12:46:00,61.0,52.3,30.35,North,0,0.0,0.0,72,0.00,,,0.00,WUHU21623XXSP,2012-09-30 19:46:00,
2012-09-30 12:51:00,61.3,51.9,30.35,WSW,247,0.0,0.0,71,0.00,,,0.00,WUHU21623XXSP,2012-09-30 19:51:00,
2012-09-30 12:56:00,61.5,51.7,30.35,WNW,292,0.0,0.0,70,0.00,,,0.00,WUHU21623XXSP,2012-09-30 19:56:00,
2012-09-30 13:01:00,61.9,51.2,30.35,SSW,202,0.0,0.0,68,0.00,,,0.00,WUHU21623XXSP,2012-09-30 20:01:00,
2012-09-30 13:06:00,62.1,51.4,30.35,NW,315,0.0,0.0,68,0.00,,,0.00,WUHU21623XXSP,2012-09-30 20:06:00,
2012-09-30 13:11:00,62.2,51.5,30.35,SW,225,0.0,0.0,68,0.00,,,0.00,WUHU21623XXSP,2012-09-30 20:11:00,
2012-09-30 13:16:00,62.6,51.9,30.35,SSE,157,0.0,0.0,68,0.00,,,0.00,WUHU21623XXSP,2012-09-30 20:16:00,
2012-09-30 13:21:00,62.8,51.2,30.34,West,270,0.0,0.0,66,0.00,,,0.00,WUHU21623XXSP,2012-09-30 20:21:00,
2012-09-30 13:26:00,63.0,51.4,30.34,West,270,0.0,0.0,66,0.00,,,0.00,WUHU21623XXSP,2012-09-30 20:26:00,
2012-09-30 13:31:00,63.1,51.0,30.34,North,0,0.0,0.0,65,0.00,,,0.00,WUHU21623XXSP,2012-09-30 20:31:00,
2012-09-30 13:36:00,63.3,50.9,30.34,North,0,0.0,0.0,64,0.00,,,0.00,WUHU21623XXSP,2012-09-30 20:36:00,
2012-09-30 13:41:00,63.3,50.9,30.33,WNW,292,0.0,0.0,64,0.00,,,0.00,WUHU21623XXSP,2012-09-30 20:41:00,
2012-09-30 13:46:00,63.5,50.9,30.33,ESE,112,0.0,0.0,64,0.00,,,0.00,WUHU21623XXSP,2012-09-30 20:46:00,
2012-09-30 13:51:00,63.7,50.8,30.33,WSW,247,0.0,0.0,63,0.00,,,0.00,WUHU21623XXSP,2012-09-30 20:51:00,
2012-09-30 13:56:00,63.7,50.8,30.33,SW,225,0.0,0.0,63,0.00,,,0.00,WUHU21623XXSP,2012-09-30 20:56:00,
2012-09-30 14:01:00,64.0,51.1,30.33,SSW,202,0.0,0.0,63,0.00,,,0.00,WUHU21623XXSP,2012-09-30 21:01:00,
2012-09-30 14:06:00,64.2,50.9,30.33,ENE,67,0.0,0.0,62,0.00,,,0.00,WUHU21623XXSP,2012-09-30 21:06:00,
2012-09-30 14:11:00,64.2,50.4,30.33,North,0,0.0,0.0,61,0.00,,,0.00,WUHU21623XXSP,2012-09-30 21:11:00,
2012-09-30 14:16:00,64.2,49.5,30.33,SW,225,0.0,0.0,59,0.00,,,0.00,WUHU21623XXSP,2012-09-30 21:16:00,
2012-09-30 14:21:00,64.6,49.9,30.33,NNE,22,0.0,0.0,59,0.00,,,0.00,WUHU21623XXSP,2012-09-30 21:21:00,
2012-09-30 14:26:00,64.6,49.9,30.33,North,0,0.0,0.0,59,0.00,,,0.00,WUHU21623XXSP,2012-09-30 21:26:00,
2012-09-30 14:31:00,64.8,49.9,30.33,ENE,67,0.0,0.0,60,0.00,,,0.00,WUHU21623XXSP,2012-09-30 21:31:00,
2012-09-30 14:36:00,64.8,50.5,30.33,SW,225,0.0,0.0,59,0.00,,,0.00,WUHU21623XXSP,2012-09-30 21:36:00,
2012-09-30 14:41:00,65.1,50.4,30.33,NNW,337,0.0,0.0,59,0.00,,,0.00,WUHU21623XXSP,2012-09-30 21:41:00,
2012-09-30 14:46:00,65.1,50.4,30.33,North,0,0.0,0.0,59,0.00,,,0.00,WUHU21623XXSP,2012-09-30 21:46:00,
2012-09-30 14:51:00,65.1,49.9,30.33,NNE,22,0.0,0.0,58,0.00,,,0.00,WUHU21623XXSP,2012-09-30 21:51:00,
2012-09-30 14:56:00,64.9,49.9,30.33,WNW,292,0.0,0.0,57,0.00,,,0.00,WUHU21623XXSP,2012-09-30 21:56:00,
2012-09-30 15:01:00,65.1,49.4,30.33,SW,225,0.0,0.0,57,0.00,,,0.00,WUHU21623XXSP,2012-09-30 22:01:00,
2012-09-30 15:06:00,65.1,49.4,30.33,NNW,337,0.0,0.0,57,0.00,,,0.00,WUHU21623XXSP,2012-09-30 22:06:00,
2012-09-30 15:11:00,65.3,49.4,30.33,NW,315,0.0,0.0,57,0.00,,,0.00,WUHU21623XXSP,2012-09-30 22:11:00,
2012-09-30 15:16:00,65.1,48.5,30.32,NNW,337,0.0,0.0,55,0.00,,,0.00,WUHU21623XXSP,2012-09-30 22:16:00,
2012-09-30 15:21:00,65.1,48.5,30.32,NW,315,0.0,0.0,55,0.00,,,0.00,WUHU21623XXSP,2012-09-30 22:21:00,
2012-09-30 15:26:00,65.1,48.5,30.32,North,0,0.0,0.0,55,0.00,,,0.00,WUHU21623XXSP,2012-09-30 22:26:00,
2012-09-30 15:31:00,65.1,48.5,30.32,ENE,67,0.0,0.0,55,0.00,,,0.00,WUHU21623XXSP,2012-09-30 22:31:00,
2012-09-30 15:36:00,65.1,48.5,30.32,South,180,0.0,0.0,55,0.00,,,0.00,WUHU21623XXSP,2012-09-30 22:36:00,
2012-09-30 15:41:00,65.1,48.5,30.32,NW,315,0.0,0.0,55,0.00,,,0.00,WUHU21623XXSP,2012-09-30 22:41:00,
2012-09-30 15:46:00,65.1,48.0,30.32,NNW,337,0.0,0.0,54,0.00,,,0.00,WUHU21623XXSP,2012-09-30 22:46:00,
2012-09-30 15:51:00,64.9,47.8,30.32,North,0,0.0,0.0,54,0.00,,,0.00,WUHU21623XXSP,2012-09-30 22:51:00,
2012-09-30 15:56:00,65.1,48.0,30.32,SSW,202,0.0,0.0,54,0.00,,,0.00,WUHU21623XXSP,2012-09-30 22:56:00,
2012-09-30 16:01:00,64.9,47.8,30.33,WNW,292,0.0,0.0,54,0.00,,,0.00,WUHU21623XXSP,2012-09-30 23:01:00,
2012-09-30 16:06:00,64.9,47.8,30.32,NNW,337,0.0,0.0,54,0.00,,,0.00,WUHU21623XXSP,2012-09-30 23:06:00,
2012-09-30 16:11:00,64.8,48.1,30.32,West,270,0.0,0.0,55,0.00,,,0.00,WUHU21623XXSP,2012-09-30 23:11:00,
2012-09-30 16:16:00,64.8,48.1,30.32,NNW,337,0.0,0.0,55,0.00,,,0.00,WUHU21623XXSP,2012-09-30 23:16:00,
2012-09-30 16:21:00,64.8,48.6,30.32,SW,225,0.0,0.0,56,0.00,,,0.00,WUHU21623XXSP,2012-09-30 23:21:00,
2012-09-30 16:26:00,64.8,49.1,30.32,NNW,337,0.0,0.0,57,0.00,,,0.00,WUHU21623XXSP,2012-09-30 23:26:00,
2012-09-30 16:31:00,64.6,48.9,30.32,ESE,112,0.0,0.0,57,0.00,,,0.00,WUHU21623XXSP,2012-09-30 23:31:00,
2012-09-30 16:36:00,64.6,48.9,30.32,North,0,0.0,0.0,57,0.00,,,0.00,WUHU21623XXSP,2012-09-30 23:36:00,
2012-09-30 16:41:00,64.2,48.6,30.32,WNW,292,0.0,0.0,57,0.00,,,0.00,WUHU21623XXSP,2012-09-30 23:41:00,
2012-09-30 16:46:00,64.2,48.6,30.32,SW,225,0.0,0.0,57,0.00,,,0.00,WUHU21623XXSP,2012-09-30 23:46:00,
2012-09-30 16:51:00,64.2,49.0,30.32,WSW,247,0.0,0.0,58,0.00,,,0.00,WUHU21623XXSP,2012-09-30 23:51:00,
2012-09-30 16:56:00,64.0,48.9,30.32,SW,225,0.0,0.0,58,0.00,,,0.00,WUHU21623XXSP,2012-09-30 23:56:00,
2012-09-30 17:01:00,64.0,49.4,30.32,WSW,247,0.0,0.0,59,0.00,,,0.00,WUHU21623XXSP,2012-10-01 00:01:00,
2012-09-30 17:06:00,63.9,48.7,30.32,SSW,202,0.0,0.0,58,0.00,,,0.00,WUHU21623XXSP,2012-10-01 00:06:00,
2012-09-30 17:11:00,63.7,49.0,30.32,SSW,202,0.0,0.0,59,0.00,,,0.00,WUHU21623XXSP,2012-10-01 00:11:00,
2012-09-30 17:16:00,63.5,48.9,30.32,ENE,67,0.0,0.0,59,0.00,,,0.00,WUHU21623XXSP,2012-10-01 00:16:00,
2012-09-30 17:21:00,63.5,48.9,30.32,West,270,0.0,0.0,59,0.00,,,0.00,WUHU21623XXSP,2012-10-01 00:21:00,
2012-09-30 17:26:00,63.3,49.2,30.32,NW,315,0.0,0.0,60,0.00,,,0.00,WUHU21623XXSP,2012-10-01 00:26:00,
2012-09-30 17:31:00,63.1,49.0,30.32,NW,315,0.0,0.0,60,0.00,,,0.00,WUHU21623XXSP,2012-10-01 00:31:00,
2012-09-30 17:36:00,63.1,49.0,30.32,NW,315,0.0,0.0,60,0.00,,,0.00,WUHU21623XXSP,2012-10-01 00:36:00,
2012-09-30 17:41:00,62.8,49.1,30.32,SE,135,0.0,0.0,61,0.00,,,0.00,WUHU21623XXSP,2012-10-01 00:41:00,
2012-09-30 17:46:00,62.6,49.0,30.32,SSE,157,0.0,0.0,61,0.00,,,0.00,WUHU21623XXSP,2012-10-01 00:46:00,
2012-09-30 17:51:00,62.4,49.2,30.33,SSE,157,0.0,0.0,62,0.00,,,0.00,WUHU21623XXSP,2012-10-01 00:51:00,
2012-09-30 17:56:00,62.2,49.5,30.32,South,180,0.0,0.0,63,0.00,,,0.00,WUHU21623XXSP,2012-10-01 00:56:00,
2012-09-30 18:01:00,61.9,49.2,30.32,South,180,0.0,0.0,63,0.00,,,0.00,WUHU21623XXSP,2012-10-01 01:01:00,
2012-09-30 18:06:00,61.7,49.0,30.32,South,180,0.0,0.0,63,0.00,,,0.00,WUHU21623XXSP,2012-10-01 01:06:00,
2012-09-30 18:11:00,61.5,49.2,30.32,WSW,247,0.0,0.0,64,0.00,,,0.00,WUHU21623XXSP,2012-10-01 01:11:00,
2012-09-30 18:16:00,61.3,49.5,30.32,WSW,247,0.0,0.0,65,0.00,,,0.00,WUHU21623XXSP,2012-10-01 01:16:00,
2012-09-30 18:21:00,61.0,49.2,30.32,WSW,247,0.0,0.0,65,0.00,,,0.00,WUHU21623XXSP,2012-10-01 01:21:00,
2012-09-30 18:26:00,60.6,49.2,30.32,SW,225,0.0,0.0,66,0.00,,,0.00,WUHU21623XXSP,2012-10-01 01:26:00,
2012-09-30 18:31:00,60.4,49.1,30.32,WSW,247,0.0,0.0,66,0.00,,,0.00,WUHU21623XXSP,2012-10-01 01:31:00,
2012-09-30 18:36:00,60.4,49.1,30.32,WSW,247,0.0,0.0,66,0.00,,,0.00,WUHU21623XXSP,2012-10-01 01:36:00,
2012-09-30 18:41:00,59.7,49.2,30.32,WSW,247,0.0,0.0,68,0.00,,,0.00,WUHU21623XXSP,2012-10-01 01:41:00,
2012-09-30 18:46:00,59.4,49.0,30.32,WSW,247,0.0,0.0,69,0.00,,,0.00,WUHU21623XXSP,2012-10-01 01:46:00,
2012-09-30 18:51:00,58.8,48.7,30.33,SW,225,0.0,0.0,69,0.00,,,0.00,WUHU21623XXSP,2012-10-01 01:51:00,
2012-09-30 18:56:00,58.3,48.1,30.32,SW,225,0.0,0.0,69,0.00,,,0.00,WUHU21623XXSP,2012-10-01 01:56:00,
2012-09-30 19:01:00,57.9,48.2,30.32,SW,225,0.0,0.0,70,0.00,,,0.00,WUHU21623XXSP,2012-10-01 02:01:00,
2012-09-30 19:06:00,57.7,48.0,30.32,SW,225,0.0,0.0,70,0.00,,,0.00,WUHU21623XXSP,2012-10-01 02:06:00,
2012-09-30 19:11:00,57.4,48.0,30.33,SW,225,0.0,0.0,71,0.00,,,0.00,WUHU21623XXSP,2012-10-01 02:11:00,
2012-09-30 19:16:00,57.0,47.7,30.33,SW,225,0.0,0.0,71,0.00,,,0.00,WUHU21623XXSP,2012-10-01 02:16:00,
2012-09-30 19:21:00,56.8,47.9,30.33,SW,225,0.0,0.0,72,0.00,,,0.00,WUHU21623XXSP,2012-10-01 02:21:00,
2012-09-30 19:26:00,56.3,47.7,30.33,SW,225,0.0,0.0,73,0.00,,,0.00,WUHU21623XXSP,2012-10-01 02:26:00,
2012-09-30 19:31:00,55.9,47.6,30.33,SW,225,0.0,0.0,73,0.00,,,0.00,WUHU21623XXSP,2012-10-01 02:31:00,
2012-09-30 19:36:00,55.8,47.2,30.32,SW,225,0.0,0.0,73,0.00,,,0.00,WUHU21623XXSP,2012-10-01 02:36:00,
2012-09-30 19:41:00,55.4,47.0,30.33,SW,225,0.0,0.0,74,0.00,,,0.00,WUHU21623XXSP,2012-10-01 02:41:00,
2012-09-30 19:46:00,55.2,47.0,30.33,SW,225,0.0,0.0,74,0.00,,,0.00,WUHU21623XXSP,2012-10-01 02:46:00,
2012-09-30 19:51:00,55.0,47.2,30.33,SW,225,0.0,0.0,75,0.00,,,0.00,WUHU21623XXSP,2012-10-01 02:51:00,
2012-09-30 19:56:00,54.7,46.9,30.33,SW,225,0.0,0.0,75,0.00,,,0.00,WUHU21623XXSP,2012-10-01 02:56:00,
2012-09-30 20:01:00,54.5,47.1,30.33,SW,225,0.0,0.0,76,0.00,,,0.00,WUHU21623XXSP,2012-10-01 03:01:00,
2012-09-30 20:06:00,54.3,46.9,30.33,SW,225,0.0,0.0,76,0.00,,,0.00,WUHU21623XXSP,2012-10-01 03:06:00,
2012-09-30 20:11:00,54.0,46.5,30.33,SW,225,0.0,0.0,76,0.00,,,0.00,WUHU21623XXSP,2012-10-01 03:11:00,
2012-09-30 20:16:00,53.8,46.7,30.33,SW,225,0.0,0.0,77,0.00,,,0.00,WUHU21623XXSP,2012-10-01 03:16:00,
2012-09-30 20:21:00,53.4,46.7,30.33,SW,225,0.0,0.0,77,0.00,,,0.00,WUHU21623XXSP,2012-10-01 03:21:00,
2012-09-30 20:26:00,53.2,46.6,30.33,SW,225,0.0,0.0,78,0.00,,,0.00,WUHU21623XXSP,2012-10-01 03:26:00,
2012-09-30 20:31:00,53.2,46.6,30.33,SW,225,0.0,0.0,78,0.00,,,0.00,WUHU21623XXSP,2012-10-01 03:31:00,
2012-09-30 20:36:00,52.9,46.2,30.33,SW,225,0.0,0.0,78,0.00,,,0.00,WUHU21623XXSP,2012-10-01 03:36:00,
2012-09-30 20:41:00,52.7,46.4,30.33,SW,225,0.0,0.0,79,0.00,,,0.00,WUHU21623XXSP,2012-10-01 03:41:00,
2012-09-30 20:46:00,52.5,46.2,30.33,SW,225,0.0,0.0,79,0.00,,,0.00,WUHU21623XXSP,2012-10-01 03:46:00,
2012-09-30 20:51:00,52.3,46.4,30.33,SW,225,0.0,0.0,80,0.00,,,0.00,WUHU21623XXSP,2012-10-01 03:51:00,
2012-09-30 20:56:00,52.2,45.9,30.33,SW,225,0.0,0.0,79,0.00,,,0.00,WUHU21623XXSP,2012-10-01 03:56:00,
2012-09-30 21:00:00,52.2,45.9,30.33,SW,225,0.0,0.0,79,0.00,,,0.00,WUHU21623XXSP,2012-10-01 04:00:00,
2012-09-30 21:01:00,52.0,45.7,30.33,SW,225,0.0,0.0,79,0.00,,,0.00,WUHU21623XXSP,2012-10-01 04:01:00,
2012-09-30 21:05:00,52.0,46.0,30.33,SW,225,0.0,0.0,80,0.00,,,0.00,WUHU21623XXSP,2012-10-01 04:05:00,
2012-09-30 21:10:00,51.6,45.7,30.33,SW,225,0.0,0.0,80,0.00,,,0.00,WUHU21623XXSP,2012-10-01 04:10:00,
2012-09-30 21:15:00,51.6,45.7,30.33,SW,225,0.0,0.0,80,0.00,,,0.00,WUHU21623XXSP,2012-10-01 04:15:00,
2012-09-30 21:20:00,51.4,45.5,30.33,SW,225,0.0,0.0,80,0.00,,,0.00,WUHU21623XXSP,2012-10-01 04:20:00,
2012-09-30 21:26:00,51.4,45.5,30.33,SW,225,0.0,0.0,80,0.00,,,0.00,WUHU21623XXSP,2012-10-01 04:26:00,
2012-09-30 21:31:00,51.1,45.4,30.33,SW,225,0.0,0.0,81,0.00,,,0.00,WUHU21623XXSP,2012-10-01 04:31:00,
2012-09-30 21:36:00,51.1,45.4,30.33,SW,225,0.0,0.0,81,0.00,,,0.00,WUHU21623XXSP,2012-10-01 04:36:00,
2012-09-30 21:40:00,50.9,45.3,30.33,SW,225,0.0,0.0,81,0.00,,,0.00,WUHU21623XXSP,2012-10-01 04:40:00,
2012-09-30 21:45:00,50.7,45.4,30.33,SW,225,0.0,0.0,82,0.00,,,0.00,WUHU21623XXSP,2012-10-01 04:45:00,
2012-09-30 21:50:00,50.5,45.2,30.33,SW,225,0.0,0.0,82,0.00,,,0.00,WUHU21623XXSP,2012-10-01 04:50:00,
2012-09-30 21:55:00,50.5,45.2,30.33,SW,225,0.0,0.0,82,0.00,,,0.00,WUHU21623XXSP,2012-10-01 04:55:00,
2012-09-30 22:00:00,50.4,45.0,30.33,SW,225,0.0,0.0,82,0.00,,,0.00,WUHU21623XXSP,2012-10-01 05:00:00,
2012-09-30 22:05:00,50.4,45.0,30.33,SW,225,0.0,0.0,82,0.00,,,0.00,WUHU21623XXSP,2012-10-01 05:05:00,
2012-09-30 22:10:00,50.2,44.9,30.32,SW,225,0.0,0.0,82,0.00,,,0.00,WUHU21623XXSP,2012-10-01 05:10:00,
2012-09-30 22:15:00,50.2,45.2,30.32,SW,225,0.0,0.0,83,0.00,,,0.00,WUHU21623XXSP,2012-10-01 05:15:00,
2012-09-30 22:20:00,50.2,45.2,30.32,SW,225,0.0,0.0,83,0.00,,,0.00,WUHU21623XXSP,2012-10-01 05:20:00,
2012-09-30 22:25:00,50.2,45.2,30.32,SW,225,0.0,0.0,83,0.00,,,0.00,WUHU21623XXSP,2012-10-01 05:25:00,
2012-09-30 22:31:00,50.2,45.2,30.32,SW,225,0.0,0.0,83,0.00,,,0.00,WUHU21623XXSP,2012-10-01 05:31:00,
2012-09-30 22:36:00,49.8,44.8,30.32,SW,225,0.0,0.0,83,0.00,,,0.00,WUHU21623XXSP,2012-10-01 05:36:00,
2012-09-30 22:41:00,49.8,44.8,30.32,SW,225,0.0,0.0,83,0.00,,,0.00,WUHU21623XXSP,2012-10-01 05:41:00,
2012-09-30 22:46:00,49.6,44.6,30.32,SW,225,0.0,0.0,83,0.00,,,0.00,WUHU21623XXSP,2012-10-01 05:46:00,
2012-09-30 22:50:00,49.6,44.6,30.32,SW,225,0.0,0.0,83,0.00,,,0.00,WUHU21623XXSP,2012-10-01 05:50:00,
2012-09-30 22:55:00,49.3,44.3,30.32,SW,225,0.0,0.0,83,0.00,,,0.00,WUHU21623XXSP,2012-10-01 05:55:00,
2012-09-30 23:00:00,49.3,44.3,30.32,SW,225,0.0,0.0,83,0.00,,,0.00,WUHU21623XXSP,2012-10-01 06:00:00,
2012-09-30 23:05:00,49.3,44.6,30.32,SW,225,0.0,0.0,84,0.00,,,0.00,WUHU21623XXSP,2012-10-01 06:05:00,
2012-09-30 23:10:00,49.1,44.4,30.32,SW,225,0.0,0.0,84,0.00,,,0.00,WUHU21623XXSP,2012-10-01 06:10:00,
2012-09-30 23:15:00,49.1,44.4,30.32,ENE,67,0.0,0.0,84,0.00,,,0.00,WUHU21623XXSP,2012-10-01 06:15:00,
2012-09-30 23:20:00,48.9,44.2,30.32,ENE,67,0.0,0.0,84,0.00,,,0.00,WUHU21623XXSP,2012-10-01 06:20:00,
2012-09-30 23:26:00,48.9,44.2,30.32,ENE,67,0.0,0.0,84,0.00,,,0.00,WUHU21623XXSP,2012-10-01 06:26:00,
2012-09-30 23:31:00,48.7,44.1,30.32,ENE,67,0.0,0.0,84,0.00,,,0.00,WUHU21623XXSP,2012-10-01 06:31:00,
2012-09-30 23:36:00,48.7,44.4,30.32,ENE,67,0.0,0.0,85,0.00,,,0.00,WUHU21623XXSP,2012-10-01 06:36:00,
2012-09-30 23:41:00,48.7,44.4,30.32,ENE,67,0.0,0.0,85,0.00,,,0.00,WUHU21623XXSP,2012-10-01 06:41:00,
2012-09-30 23:46:00,48.6,44.2,30.32,ENE,67,0.0,0.0,85,0.00,,,0.00,WUHU21623XXSP,2012-10-01 06:46:00,
2012-09-30 23:51:00,48.6,44.2,30.32,ENE,67,0.0,0.0,85,0.00,,,0.00,WUHU21623XXSP,2012-10-01 06:51:00,
2012-09-30 23:56:00,48.6,44.2,30.32,ENE,67,0.0,0.0,85,0.00,,,0.00,WUHU21623XXSP,2012-10-01 06:56:00,